Dewpoint
14 16 17 16 16 15 16 15 13 11 14 12 10 7 7 6 8 6 7 7 8 8 9 10 10 10 10 8 9 8 8 10 12 10 12 11 15 16 17 15 19 20 19 22 21 22 21 22 22 24 24 26 26 26 27 27 28 29 31 34 35 35 37 39 40 43 40 36 36 37 35 33 33 35 37 39 40 43 44 45 45 45 47 47 47
14 13 14 15 13 16 16 15 15 11 11 10 10 7 7 7 7 5 7 7 9 9 12 11 11 11 11 9 9 8 8 9 9 8 10 14 14 16 16 17 18 18 19 20 21 21 22 21 22 21 23 24 25 26 26 27 26 27 28 29 32 34 35 37 37 40 39 40 37 36 37 35 33 33 34 35 38 40 42 44 45 45 47 47 46
9 8 11 12 15 15 14 12 11 14 13 10 9 8 7 9 8 7 9 11 11 13 14 11 9 12 12 9 9 9 9 9 12 14 15 12 14 15 19 21 19 17 19 20 22 22 21 20 22 22 23 23 23 23 24 24 25 25 26 27 27 31 33 36 38 38 35 39 40 39 37 37 37 34 32 32 33 36 39 41 42 44 43 45 46
10 9 7 9 11 11 12 13 11 15 13 10 6 7 6 8 8 10 9 9 12 14 15 14 13 14 15 14 14 11 9 12 12 12 11 10 10 11 17 19 21 21 22 21 20 21 22 21 21 22 22 23 21 22 23 23 24 24 25 25 26 26 28 31 35 35 35 34 35 37 38 39 38 37 35 34 32 34 35 38 40 41 42 41 43
10 9 8 8 8 10 10 12 13 13 15 12 9 6 5 9 10 11 9 9 11 12 12 13 12 11 10 12 12 11 11 9 8 8 10 10 11 10 13 16 18 19 20 21 21 21 22 21 22 21 21 22 21 20 21 23 23 24 24 24 24 25 24 28 32 34 34 35 31 33 31 34 37 38 37 34 30 30 32 35 36 38 39 40 42
12 10 9 9 9 11 12 13 13 13 11 13 9 8 8 8 9 10 9 9 10 11 14 11 10 8 8 10 7 9 10 6 9 11 12 12 13 14 13 11 14 13 16 19 21 20 21 22 22 22 20 21 21 21 21 21 22 23 24 24 23 25 24 25 26 29 31 33 34 33 30 27 27 28 37 36 27 29 29 30 33 36 37 39 40
13 12 11 10 11 12 13 12 12 12 11 13 9 8 8 9 10 10 9 9 11 11 13 10 8 7 7 8 8 7 6 9 8 8 10 12 14 12 12 14 17 13 15 18 18 20 21 21 22 22 21 21 21 20 20 21 21 23 24 23 23 24 23 22 23 25 27 32 31 33 34 32 29 25 30 30 27 27 25 26 27 31 34 37 38
12 11 11 11 11 11 11 13 12 12 15 17 12 9 8 6 9 9 9 8 10 11 10 11 9 9 10 8 8 7 4 4 4 4 5 10 12 12 13 13 16 15 15 17 18 18 18 18 21 21 21 21 21 19 20 21 21 22 23 23 23 23 23 22 22 23 23 24 28 30 33 34 33 30 24 21 23 28 27 26 24 27 29 32 35
12 11 11 10 11 12 12 14 13 15 18 18 12 8 6 6 9 9 9 9 9 11 10 9 11 9 7 6 6 6 5 6 6 7 5 5 3 3 7 11 12 12 15 15 18 17 17 16 19 19 20 21 20 19 19 21 22 22 22 22 22 23 22 23 22 22 22 22 24 25 28 31 33 32 30 24 17 21 25 26 24 21 22 25 30
14 11 10 11 9 10 12 14 17 19 20 20 14 8 7 8 10 9 8 8 9 10 10 9 10 8 7 7 7 6 5 5 5 3 3 4 2 3 2 5 10 10 12 15 16 16 18 18 18 18 18 18 18 19 22 22 21 22 22 22 21 22 22 22 22 22 22 23 23 24 23 26 29 31 30 27 20 16 14 21 26 23 24 25 26
15 14 13 12 11 11 15 18 18 19 20 19 15 8 6 9 10 8 7 7 9 10 10 10 9 6 6 6 6 5 5 5 2 2 2 1 1 1 2 2 4 5 11 11 13 15 16 17 16 16 17 18 18 18 18 18 18 19 20 21 21 22 21 21 21 22 22 22 22 23 22 23 24 27 28 30 28 23 19 15 19 24 27 29 24
16 15 14 13 13 15 17 18 17 19 20 19 14 10 9 9 9 8 7 7 7 10 10 9 8 8 7 6 4 3 4 3 2 1 2 2 2 2 2 3 3 2 4 5 6 11 14 13 14 14 14 15 16 17 18 17 18 18 18 18 19 20 21 20 21 20 21 21 21 22 22 23 23 24 25 28 30 29 28 25 19 15 19 23 21
17 16 15 14 13 13 13 14 16 18 19 19 14 10 9 8 8 7 6 7 7 7 9 8 7 7 6 5 4 5 5 5 4 1 3 1 1 1 1 1 1 5 2 3 6 8 8 6 10 8 10 12 15 17 18 19 18 15 17 18 18 19 20 19 18 20 20 20 20 21 22 22 22 24 24 25 29 31 31 29 27 18 15 17 17
19 19 17 16 15 15 15 14 13 15 18 18 13 9 8 8 7 7 6 7 7 7 7 7 6 6 5 5 5 3 3 4 2 1 1 1 1 1 1 1 0 -0 0 2 5 7 7 7 6 5 9 14 15 16 17 18 19 15 16 15 17 18 18 19 19 20 20 20 21 20 21 21 22 23 23 24 25 27 29 30 29 28 22 15 14
23 22 21 18 16 16 17 16 16 15 16 17 13 8 7 7 7 6 6 6 6 6 7 6 5 5 3 4 5 4 2 2 2 2 2 2 2 1 1 0 -0 -0 -0 2 5 5 4 3 2 2 2 4 10 12 14 15 17 17 16 15 16 17 17 18 17 18 19 19 20 20 20 20 21 22 23 23 24 24 25 28 30 29 27 26 22
22 21 20 19 18 18 18 17 16 15 16 16 13 9 8 7 6 5 5 5 5 6 6 4 4 2 3 3 4 4 4 3 2 2 2 2 2 1 0 0 0 -0 0 1 1 2 2 1 2 2 2 4 2 3 8 12 13 13 14 15 15 17 17 17 16 17 18 19 19 20 19 19 21 21 22 22 22 23 24 25 28 30 28 26 26
22 20 19 19 19 19 18 18 15 14 15 14 11 8 6 5 4 4 4 4 2 3 1 1 0 0 1 2 1 2 2 2 2 2 2 1 1 0 -1 -1 -0 -0 -1 1 2 2 1 2 1 1 1 1 0 2 3 3 8 11 13 12 14 15 15 15 14 16 16 17 17 18 18 18 19 20 21 21 22 23 23 24 26 27 30 28 27
20 20 19 19 20 19 18 17 14 12 13 12 10 8 5 3 3 0 0 -0 -0 0 0 0 0 0 0 1 1 2 2 2 2 3 2 1 -0 -0 -1 -1 -0 -0 1 2 3 5 5 5 3 1 1 -0 -0 -1 -0 1 4 4 8 11 12 14 14 15 15 15 15 15 16 17 17 17 18 19 19 21 21 21 22 23 24 25 27 29 29
19 19 19 19 18 18 18 16 13 12 12 9 6 4 2 1 0 0 -0 -0 -0 0 0 0 1 0 1 1 1 1 1 2 3 2 1 0 -0 -1 -0 0 1 2 3 3 4 5 4 4 3 1 -1 -1 -2 -1 0 1 2 4 5 7 8 12 12 14 15 15 14 15 16 16 16 15 17 18 18 19 20 21 21 22 22 24 24 26 29
19 18 17 17 18 17 16 15 11 10 9 8 5 2 1 0 0 1 1 -0 0 0 1 1 1 0 1 1 1 2 2 3 1 0 -0 -0 -0 -1 -0 1 2 3 3 4 4 5 4 2 1 -1 -1 -1 -0 0 0 1 2 4 5 8 5 7 10 13 13 12 14 14 14 15 15 14 15 15 16 17 18 20 21 20 22 22 23 24 25
17 17 16 16 16 16 16 14 10 7 6 6 3 1 0 -0 -0 0 0 0 0 1 1 1 1 0 2 2 2 4 3 2 2 -0 -1 0 -0 1 1 1 2 2 3 4 4 3 1 1 -0 -1 0 1 2 2 2 -0 -0 2 2 4 4 5 9 10 11 12 11 13 14 13 14 13 15 15 14 15 17 18 19 20 21 21 20 22 23
13 14 13 13 13 13 12 11 8 5 4 3 2 1 -0 -0 -0 -0 -0 -0 -0 0 1 1 1 1 2 2 2 2 1 1 -1 -0 0 -1 0 0 0 1 1 1 2 2 3 2 2 2 1 1 2 2 1 -0 -2 -2 -2 -0 -0 2 8 5 9 10 9 11 11 11 12 13 13 13 10 14 15 15 16 16 18 18 18 19 19 20 23
9 11 11 11 11 11 10 8 5 4 3 3 2 0 -0 -0 -0 -0 -0 -0 0 1 1 1 1 2 2 3 2 1 1 -0 -0 -0 -0 -0 -0 -0 -1 1 2 2 2 2 2 2 2 1 1 2 0 -2 -2 -1 0 1 1 2 3 3 4 7 8 8 9 10 10 11 11 12 13 14 13 13 14 14 15 16 17 17 17 18 19 20 22
9 9 10 10 10 10 7 5 4 3 2 1 0 -0 -0 -0 -0 -1 -0 -0 0 1 2 1 1 2 2 2 1 0 -1 0 -1 -0 0 0 1 1 1 2 3 2 1 1 1 1 2 1 0 -2 -2 -1 1 1 2 2 2 2 2 2 2 2 7 8 8 9 10 10 11 12 12 13 13 13 13 13 13 14 15 16 16 17 18 19 20
6 8 10 10 9 8 6 4 3 2 1 0 0 -0 -0 -0 -0 -0 -0 0 1 2 2 1 2 2 2 1 0 -0 -0 -0 0 1 1 1 1 1 2 1 0 1 1 1 1 -1 -2 -2 -3 -2 -1 1 1 0 0 -0 1 1 1 2 2 3 7 9 9 10 11 11 11 11 11 13 13 13 13 12 13 13 14 14 15 16 16 17 18
7 8 9 9 8 7 5 3 2 2 1 -0 -0 -0 -0 -1 -1 -0 -0 0 1 2 2 2 2 2 1 1 2 1 1 1 1 1 1 2 1 0 -0 -1 -1 0 1 -0 -2 -3 -3 -3 -2 -0 1 -0 -2 -2 -2 -2 -1 0 1 2 4 5 7 8 9 8 9 11 11 11 11 12 13 12 12 12 12 13 13 13 13 14 15 16 17
6 8 7 7 6 5 4 3 2 1 0 -0 -0 -0 -0 -0 -1 -0 0 1 2 2 3 2 2 1 4 2 1 1 1 1 2 2 1 4 1 -0 -2 -2 0 1 -2 -3 -4 -4 -3 -1 0 1 0 -2 -2 -2 -3 -3 -1 0 2 6 6 6 6 7 6 6 8 9 11 11 12 12 12 12 12 12 12 12 12 12 13 14 15 15 15
6 6 5 5 4 3 3 2 2 1 0 0 0 0 -0 -1 -1 0 1 2 3 3 3 4 3 2 1 1 1 1 1 3 2 2 3 1 1 -2 -1 0 1 -2 -3 -4 -4 -2 -2 0 1 -0 -2 -2 -2 -2 -2 -2 0 4 6 6 7 7 7 6 6 7 7 8 9 10 11 12 12 11 11 11 12 10 10 11 12 13 13 14 14
4 5 5 4 3 3 3 2 1 1 1 1 1 0 0 0 1 1 2 3 3 4 3 2 2 1 1 1 1 1 2 5 5 3 2 -0 -1 -1 1 -0 -2 -2 -0 -3 -2 -0 1 2 0 -0 -1 -1 1 0 0 1 2 4 6 6 6 6 6 6 6 7 8 8 9 10 10 11 12 12 12 12 12 12 11 9 11 12 12 12 12
3 3 4 4 3 3 3 2 2 2 1 1 0 0 1 1 2 2 3 3 4 2 2 2 1 1 1 1 3 6 5 5 3 1 -1 -2 -2 -0 1 1 -1 0 1 1 2 4 4 3 1 1 1 -0 -1 -1 1 3 5 4 5 5 5 6 6 7 7 7 8 9 9 10 11 12 12 12 12 12 13 13 13 13 11 12 12 12 12
3 3 3 3 4 4 3 3 3 2 1 2 2 1 1 2 2 3 4 3 3 2 1 1 1 2 2 5 5 5 4 1 0 -1 -2 -1 -1 1 1 -1 -1 0 0 3 4 3 2 1 0 -0 0 -0 -0 1 3 10 12 13 9 8 8 8 9 9 9 10 10 9 10 11 11 12 13 13 12 12 12 13 13 14 14 15 15 14 12
3 4 4 3 3 3 3 3 3 3 3 2 2 2 2 3 3 4 3 3 2 2 1 1 4 4 4 5 2 1 1 0 -0 -2 -2 -2 -1 1 0 -0 -1 -1 0 3 2 1 0 0 0 0 0 -1 -1 1 9 11 13 13 12 8 8 8 9 9 9 8 8 8 9 10 10 10 10 11 12 12 11 12 12 13 13 14 14 15 16
3 3 4 5 4 3 4 4 3 3 4 3 3 3 3 4 4 4 3 2 2 2 2 4 4 5 2 1 1 -0 -0 -1 -1 -1 1 2 1 -0 -1 -1 -1 0 2 1 1 -1 -1 -1 -1 -1 -1 -1 -0 3 10 12 12 13 14 11 8 8 8 8 8 8 8 8 8 7 7 7 7 9 9 11 13 13 14 13 13 13 13 14 15
4 4 5 5 5 4 4 5 5 4 4 4 3 4 4 4 3 2 2 2 2 4 5 4 4 2 1 1 0 -0 0 1 -0 -1 1 1 1 -0 -1 -1 -0 1 0 -1 -2 -2 -2 -1 -1 -1 -1 -1 -0 2 9 11 12 13 13 12 8 8 8 8 9 9 8 8 8 8 8 8 9 10 10 10 10 10 10 10 11 10 10 11 13
7 7 7 6 5 5 4 4 4 4 4 5 4 4 4 3 2 2 2 3 5 5 4 3 2 1 1 0 0 1 -0 -1 -1 -1 0 0 -1 -0 -1 -1 -0 -1 -2 -2 -3 -3 -2 -2 -1 -1 -1 -1 -1 6 10 11 12 13 13 12 8 8 8 8 8 8 9 9 9 10 10 9 9 9 9 11 10 10 10 10 10 9 10 9 10
7 6 7 7 6 5 5 5 5 6 5 5 4 3 2 3 4 3 4 5 4 3 2 1 1 -0 0 0 0 0 -1 -1 -2 -1 -1 -1 -1 -1 -2 -2 -2 -3 -2 -3 -3 -3 -3 -2 -2 -2 -2 -2 -1 7 10 11 12 12 12 7 6 6 6 6 6 7 7 7 7 7 7 7 7 7 8 9 9 8 9 9 10 11 11 11 11
6 5 5 6 6 6 4 5 6 5 5 4 3 3 3 4 4 5 4 3 2 1 1 0 0 -0 0 0 0 -1 -2 -2 -2 -1 -1 -2 -1 -2 -2 -1 -2 -3 -4 -5 -4 -4 -3 -3 -3 -2 -3 -3 -2 3 8 10 10 12 10 5 5 4 4 5 5 5 6 6 6 7 6 4 5 7 8 12 13 12 10 9 8 8 8 8 8
4 4 4 5 4 5 4 4 5 4 3 3 3 2 5 3 2 2 1 2 1 1 0 -0 -0 1 0 0 -1 -1 -2 -1 -1 -1 -1 -1 -1 -1 -1 -1 -3 -4 -5 -5 -5 -6 -4 -3 -3 -3 -3 -3 -3 -1 6 9 10 11 9 5 4 3 4 4 4 6 5 6 7 8 9 8 8 8 10 12 14 12 10 10 10 10 9 10 10
5 4 6 6 5 5 5 6 5 4 4 4 4 2 2 2 2 3 2 2 2 2 1 0 -0 0 1 -0 -2 -2 -1 -1 -1 -1 -1 -1 -1 -1 -1 -2 -4 -4 -5 -5 -5 -5 -5 -4 -4 -4 -2 -3 -3 -2 3 8 10 11 8 4 3 2 2 2 2 3 5 5 6 8 9 10 10 10 13 14 15 12 11 10 10 9 8 8 9
6 7 6 6 6 6 7 6 5 6 6 5 4 2 4 3 3 4 2 2 2 1 1 1 1 1 -0 -1 -1 -1 -1 -1 -1 -1 -1 -1 -0 -1 -2 -3 -4 -6 -7 -6 -6 -5 -5 -5 -4 -4 -4 -3 -4 -4 -1 7 9 10 11 5 4 2 1 2 2 1 1 3 4 4 6 8 10 12 13 13 14 14 13 12 12 9 8 8 10
8 8 10 7 7 8 8 7 6 6 5 4 3 3 4 4 4 3 2 1 1 1 -1 -0 0 -0 -1 -1 -2 -2 -1 -1 -1 -1 -1 -1 -1 -3 -3 -4 -6 -6 -7 -7 -6 -6 -7 -6 -6 -5 -4 -4 -4 -3 -2 6 8 9 10 8 3 3 2 1 1 2 1 1 1 3 4 6 8 10 11 12 12 13 13 11 12 12 13 13 14
11 10 10 9 10 8 7 7 6 6 5 4 5 5 4 4 3 2 2 2 0 1 1 1 -0 -0 -1 -1 -2 -1 -1 -1 -1 -1 -1 -2 -3 -3 -4 -6 -8 -8 -7 -7 -7 -8 -9 -8 -8 -7 -5 -5 -4 -3 -4 -1 6 8 9 9 3 3 3 2 1 1 2 3 4 4 6 8 9 11 12 13 13 13 14 10 10 14 15 14 11
11 10 11 11 10 8 8 6 5 5 5 5 5 4 4 3 2 1 1 2 1 1 0 -0 -1 -2 -2 -2 -2 -2 -2 -2 -2 -2 -2 -4 -4 -5 -6 -7 -7 -8 -8 -9 -9 -9 -9 -9 -9 -10 -8 -7 -5 -6 -4 -4 -0 6 8 8 9 6 9 5 4 4 4 3 3 4 5 6 8 9 10 11 12 13 12 11 15 16 15 13 12
12 12 11 11 9 8 7 6 5 5 6 6 5 4 3 2 1 2 1 1 1 0 -0 -1 -2 -2 -2 -3 -3 -3 -2 -3 -3 -4 -5 -5 -6 -6 -7 -9 -9 -10 -12 -13 -13 -12 -11 -11 -11 -11 -10 -9 -8 -8 -6 -3 -3 2 7 9 9 9 8 5 4 2 1 1 1 4 4 8 9 11 12 13 14 13 11 14 14 13 13 14 12
12 11 11 10 9 8 6 5 5 5 5 5 5 3 2 1 1 1 1 0 -0 -1 -2 -3 -2 -2 -3 -3 -3 -3 -3 -4 -5 -6 -7 -7 -7 -7 -9 -9 -9 -11 -12 -13 -14 -13 -13 -13 -12 -12 -12 -11 -11 -9 -8 -6 -3 -1 4 7 7 5 3 2 0 1 2 2 4 7 8 9 10 11 11 11 11 9 10 11 11 11 11 8 8
11 11 10 9 8 7 6 5 4 4 4 4 4 2 0 1 1 0 0 -1 -1 -3 -3 -4 -4 -4 -4 -4 -4 -5 -5 -5 -6 -7 -8 -8 -8 -8 -10 -10 -11 -12 -13 -14 -14 -14 -14 -13 -13 -13 -12 -12 -10 -9 -8 -7 -4 -1 -1 1 2 0 -0 1 2 1 4 5 6 6 5 5 5 6 5 5 6 6 9 9 9 9 8 7 7
10 10 9 7 6 6 5 4 4 4 4 3 2 1 1 1 -0 -0 -1 -1 -2 -4 -5 -5 -4 -4 -4 -4 -5 -7 -7 -6 -6 -7 -9 -9 -9 -9 -9 -10 -11 -13 -14 -14 -15 -14 -14 -14 -14 -14 -13 -12 -11 -10 -9 -7 -6 -6 -7 -5 -5 -5 -1 0 -1 -1 0 -1 -1 -0 0 4 5 6 7 8 8 8 8 7 5 5 5 5 6
10 8 8 7 6 5 4 4 3 3 3 2 1 0 0 -0 -1 -1 -2 -3 -5 -5 -5 -5 -5 -5 -6 -6 -7 -8 -8 -8 -8 -8 -9 -10 -10 -10 -10 -11 -13 -14 -15 -15 -16 -15 -15 -15 -15 -14 -13 -13 -12 -11 -10 -9 -8 -9 -8 -7 -6 -5 -5 -5 -5 -4 -3 -2 -2 1 2 1 1 2 3 3 3 4 5 6 4 4 4 6 8
8 7 6 5 5 4 4 3 2 2 2 1 0 -0 -1 -2 -2 -2 -3 -5 -6 -6 -5 -5 -5 -6 -7 -7 -8 -8 -9 -9 -9 -9 -10 -10 -10 -11 -11 -11 -11 -13 -14 -15 -15 -14 -14 -13 -13 -13 -13 -13 -12 -11 -10 -6 -6 -4 -5 -7 -7 -7 -6 -6 -4 -1 -2 -1 -1 -2 -2 -2 -1 -1 -1 -1 0 2 2 3 5 5 4 4 5
7 6 5 5 4 3 2 1 1 1 0 -1 -1 -2 -2 -2 -3 -4 -5 -6 -7 -7 -7 -7 -7 -8 -8 -9 -9 -10 -9 -10 -10 -11 -10 -10 -10 -8 -9 -12 -13 -10 -9 -8 -7 -12 -12 -12 -12 -12 -11 -12 -12 -10 -4 -3 -2 -2 -3 -3 -2 -3 -3 -4 -2 -0 -0 -3 -3 -4 -4 -4 -4 -5 -5 -4 -3 -1 0 1 2 5 4 4 4
5 4 4 3 2 1 0 -0 -0 -1 -1 -2 -3 -3 -4 -4 -4 -4 -6 -6 -7 -8 -9 -9 -10 -10 -10 -11 -11 -11 -11 -11 -11 -11 -11 -12 -12 -11 -5 -5 -7 -8 -9 -8 -6 -5 -5 -7 -9 -12 -9 -7 -7 -6 -4 -4 -3 -2 -4 -5 -6 -5 -3 -1 1 -2 -3 -5 -6 -7 -7 -6 -6 -6 -6 -5 -4 -3 -1 1 1 2 2 3 4